JANET44 KXTA-KPMD

Flight info

Callsign JANET44
Flight time 0h 47m
Altitude 32000
Route TOMBA1 BGZEE EXITT FURNY
Aircraft B736/M-SDE2E3FGHIRWXY/LB1

Departure

Time 2026-05-04 20:56
Airport Homey (Area 51) Airport (KXTA)

Arrival

Time 2026-05-04 21:43
Airport Palmdale Regional Airport / USAF Plant 42 Airport (KPMD)
Time Latitude Longitude Altitude Speed Heading
2026-05-04 20:52 37.22176 -115.79383 4440 ft 19 kts 341°
2026-05-04 20:52 37.22306 -115.79440 4440 ft 22 kts 340°
2026-05-04 20:52 37.22455 -115.79524 4440 ft 24 kts 336°
2026-05-04 20:53 37.22626 -115.79612 4441 ft 33 kts 336°
2026-05-04 20:53 37.22834 -115.79729 4441 ft 33 kts 349°
2026-05-04 20:53 37.23090 -115.79854 4441 ft 45 kts 336°
2026-05-04 20:53 37.23404 -115.80024 4441 ft 54 kts 337°
2026-05-04 20:54 37.23759 -115.80207 4441 ft 58 kts 337°
2026-05-04 20:54 37.24132 -115.80404 4441 ft 57 kts 337°
2026-05-04 20:54 37.24494 -115.80598 4441 ft 56 kts 337°
2026-05-04 20:54 37.24839 -115.80779 4441 ft 40 kts 337°
2026-05-04 20:55 37.24978 -115.80761 4441 ft 21 kts 120°
2026-05-04 20:55 37.24894 -115.80580 4441 ft 27 kts 119°
2026-05-04 20:55 37.24777 -115.80301 4441 ft 47 kts 118°
2026-05-04 20:55 37.24745 -115.79989 4441 ft 27 kts 116°
2026-05-04 20:56 37.24435 -115.79818 4441 ft 93 kts 157°
2026-05-04 20:56 37.23567 -115.79362 4478 ft 175 kts 158°
2026-05-04 20:56 37.22413 -115.78769 5342 ft 189 kts 162°
2026-05-04 20:56 37.21213 -115.78095 6328 ft 190 kts 158°
2026-05-04 20:57 37.19982 -115.77395 7430 ft 201 kts 159°
2026-05-04 20:57 37.18654 -115.76655 8537 ft 217 kts 159°
2026-05-04 20:57 37.17201 -115.75855 9691 ft 236 kts 158°
2026-05-04 20:57 37.15636 -115.74996 10785 ft 255 kts 158°
2026-05-04 20:58 37.13965 -115.74079 11912 ft 270 kts 158°
2026-05-04 20:58 37.12267 -115.72932 13075 ft 287 kts 143°
2026-05-04 20:58 37.10976 -115.70929 14180 ft 307 kts 122°
2026-05-04 20:58 37.10342 -115.68341 15230 ft 328 kts 98°
2026-05-04 20:59 37.10691 -115.65498 16340 ft 345 kts 69°
2026-05-04 20:59 37.12102 -115.63038 17448 ft 354 kts 39°
2026-05-04 20:59 37.14233 -115.61632 18526 ft 353 kts 10°
2026-05-04 20:59 37.16649 -115.61572 19569 ft 338 kts 340°
2026-05-04 21:00 37.18637 -115.62826 20615 ft 311 kts 309°
2026-05-04 21:00 37.19751 -115.64937 21731 ft 280 kts 277°
2026-05-04 21:00 37.20081 -115.67263 22920 ft 265 kts 272°
2026-05-04 21:00 37.20559 -115.69480 23951 ft 261 kts 279°
2026-05-04 21:01 37.21221 -115.71543 24933 ft 254 kts 282°
2026-05-04 21:01 37.21962 -115.73511 25964 ft 241 kts 283°
2026-05-04 21:01 37.22691 -115.75329 27012 ft 225 kts 283°
2026-05-04 21:01 37.23338 -115.77069 27642 ft 221 kts 272°
2026-05-04 21:02 37.23442 -115.78968 27833 ft 223 kts 255°
2026-05-04 21:02 37.23021 -115.80853 28177 ft 227 kts 241°
2026-05-04 21:02 37.22114 -115.82497 28607 ft 236 kts 232°
2026-05-04 21:02 37.21035 -115.84097 29021 ft 246 kts 231°
2026-05-04 21:03 37.19899 -115.85756 29466 ft 256 kts 231°
2026-05-04 21:03 37.18766 -115.87416 29869 ft 265 kts 231°
2026-05-04 21:03 37.17955 -115.88610 30108 ft 271 kts 231°
2026-05-04 21:03 37.16731 -115.90415 30479 ft 279 kts 231°
2026-05-04 21:04 37.15501 -115.92234 30840 ft 287 kts 231°
2026-05-04 21:04 37.14194 -115.94170 31220 ft 294 kts 231°
2026-05-04 21:04 37.12875 -115.96126 31595 ft 302 kts 231°
2026-05-04 21:04 37.11525 -115.98127 31751 ft 315 kts 231°
2026-05-04 21:05 37.09991 -116.00191 31762 ft 332 kts 223°
2026-05-04 21:05 37.08084 -116.01890 31790 ft 350 kts 216°
2026-05-04 21:05 37.05966 -116.03522 31787 ft 364 kts 215°
2026-05-04 21:05 37.03754 -116.05195 31770 ft 377 kts 215°
2026-05-04 21:06 36.99160 -116.08718 31780 ft 396 kts 216°
2026-05-04 21:06 36.94446 -116.12477 31759 ft 403 kts 221°
2026-05-04 21:07 36.90912 -116.17777 31766 ft 397 kts 239°
2026-05-04 21:07 36.88756 -116.24114 31782 ft 399 kts 246°
2026-05-04 21:08 36.86724 -116.30593 31771 ft 402 kts 245°
2026-05-04 21:08 36.84667 -116.37088 31765 ft 402 kts 245°
2026-05-04 21:09 36.82599 -116.43569 31761 ft 401 kts 245°
2026-05-04 21:09 36.80513 -116.50035 31770 ft 402 kts 245°
2026-05-04 21:10 36.78422 -116.56491 31762 ft 401 kts 245°
2026-05-04 21:10 36.76323 -116.62992 31760 ft 407 kts 246°
2026-05-04 21:11 36.74221 -116.69491 31748 ft 405 kts 245°
2026-05-04 21:11 36.72105 -116.76001 31750 ft 405 kts 245°
2026-05-04 21:12 36.69984 -116.82503 31742 ft 405 kts 245°
2026-05-04 21:12 36.67856 -116.89013 31755 ft 406 kts 245°
2026-05-04 21:13 36.65724 -116.95493 31741 ft 408 kts 245°
2026-05-04 21:13 36.63559 -117.02068 31745 ft 407 kts 245°
2026-05-04 21:14 36.61429 -117.08533 31738 ft 407 kts 245°
2026-05-04 21:14 36.59304 -117.14965 31742 ft 406 kts 244°
2026-05-04 21:15 36.57146 -117.21476 31749 ft 407 kts 245°
2026-05-04 21:15 36.55053 -117.27865 31760 ft 408 kts 245°
2026-05-04 21:16 36.52912 -117.34333 31746 ft 409 kts 245°
2026-05-04 21:16 36.50472 -117.40702 31737 ft 407 kts 232°
2026-05-04 21:17 36.48510 -117.43234 31744 ft 408 kts 221°
2026-05-04 21:17 36.46217 -117.45255 31740 ft 408 kts 214°
2026-05-04 21:17 36.40851 -117.47627 31795 ft 418 kts 196°
2026-05-04 21:18 36.35072 -117.48599 31770 ft 420 kts 194°
2026-05-04 21:18 36.29262 -117.49473 31755 ft 420 kts 194°
2026-05-04 21:19 36.23584 -117.50375 31769 ft 419 kts 194°
2026-05-04 21:19 36.17805 -117.51333 31769 ft 418 kts 195°
2026-05-04 21:20 36.12030 -117.52304 31771 ft 417 kts 195°
2026-05-04 21:20 36.06265 -117.53273 31787 ft 417 kts 195°
2026-05-04 21:21 36.00558 -117.54231 31781 ft 415 kts 195°
2026-05-04 21:21 35.94876 -117.55178 31793 ft 410 kts 195°
2026-05-04 21:22 35.89203 -117.56131 31800 ft 412 kts 195°
2026-05-04 21:22 35.83519 -117.57083 31437 ft 417 kts 195°
2026-05-04 21:23 35.80657 -117.57562 30817 ft 415 kts 195°
2026-05-04 21:23 35.77825 -117.58032 30109 ft 411 kts 195°
2026-05-04 21:23 35.75056 -117.58489 29319 ft 405 kts 195°
2026-05-04 21:23 35.72293 -117.58946 28522 ft 401 kts 195°
2026-05-04 21:24 35.69532 -117.59403 27732 ft 398 kts 195°
2026-05-04 21:24 35.66787 -117.59860 26961 ft 396 kts 195°
2026-05-04 21:24 35.64048 -117.60318 26226 ft 396 kts 195°
2026-05-04 21:24 35.61335 -117.60771 25493 ft 395 kts 195°
2026-05-04 21:25 35.58626 -117.61222 24786 ft 395 kts 194°
2026-05-04 21:25 35.55903 -117.61675 24097 ft 395 kts 194°
2026-05-04 21:25 35.53177 -117.62127 23378 ft 394 kts 194°
2026-05-04 21:25 35.50468 -117.62576 22576 ft 393 kts 194°
2026-05-04 21:26 35.47751 -117.63026 21777 ft 392 kts 193°
2026-05-04 21:26 35.45076 -117.63468 21028 ft 391 kts 193°
2026-05-04 21:26 35.42359 -117.63918 20272 ft 390 kts 192°
2026-05-04 21:26 35.39690 -117.64359 19562 ft 389 kts 192°
2026-05-04 21:27 35.37023 -117.64799 18848 ft 387 kts 191°
2026-05-04 21:27 35.34362 -117.65237 18150 ft 385 kts 192°
2026-05-04 21:27 35.31693 -117.65679 17363 ft 383 kts 190°
2026-05-04 21:27 35.29106 -117.66104 16591 ft 378 kts 191°
2026-05-04 21:28 35.26523 -117.66527 15829 ft 373 kts 191°
2026-05-04 21:28 35.23973 -117.66945 15080 ft 362 kts 191°
2026-05-04 21:28 35.21551 -117.67338 14363 ft 347 kts 191°
2026-05-04 21:28 35.19216 -117.67716 13655 ft 336 kts 191°
2026-05-04 21:29 35.16928 -117.68089 12866 ft 326 kts 191°
2026-05-04 21:29 35.14708 -117.68453 12114 ft 317 kts 192°
2026-05-04 21:29 35.12536 -117.68815 11377 ft 310 kts 191°
2026-05-04 21:29 35.10440 -117.69164 10650 ft 305 kts 191°
2026-05-04 21:30 35.08338 -117.69509 9936 ft 299 kts 192°
2026-05-04 21:30 35.06303 -117.69843 9168 ft 295 kts 191°
2026-05-04 21:30 35.04300 -117.70168 8407 ft 291 kts 192°
2026-05-04 21:30 35.02302 -117.70498 7655 ft 287 kts 194°
2026-05-04 21:31 34.98436 -117.71128 6210 ft 281 kts 192°
2026-05-04 21:31 34.96549 -117.71435 5528 ft 277 kts 193°
2026-05-04 21:32 34.94873 -117.71706 5330 ft 259 kts 192°
2026-05-04 21:32 34.93164 -117.71979 5188 ft 240 kts 193°
2026-05-04 21:32 34.91575 -117.72234 5056 ft 224 kts 192°
2026-05-04 21:32 34.90049 -117.72483 4973 ft 215 kts 193°
2026-05-04 21:33 34.88589 -117.72723 4993 ft 208 kts 195°
2026-05-04 21:33 34.87186 -117.72950 4983 ft 202 kts 194°
2026-05-04 21:33 34.85802 -117.73179 4972 ft 204 kts 193°
2026-05-04 21:33 34.84354 -117.73420 4959 ft 212 kts 194°
2026-05-04 21:34 34.82903 -117.73659 4958 ft 210 kts 193°
2026-05-04 21:34 34.81467 -117.73893 4962 ft 208 kts 194°
2026-05-04 21:34 34.80032 -117.74129 4960 ft 207 kts 193°
2026-05-04 21:34 34.78607 -117.74368 4955 ft 208 kts 192°
2026-05-04 21:35 34.77184 -117.74603 4970 ft 211 kts 194°
2026-05-04 21:35 34.75713 -117.74843 4955 ft 210 kts 193°
2026-05-04 21:35 34.74283 -117.75075 4960 ft 208 kts 192°
2026-05-04 21:35 34.72844 -117.75308 4951 ft 209 kts 192°
2026-05-04 21:36 34.71404 -117.75543 4968 ft 213 kts 193°
2026-05-04 21:36 34.69946 -117.75781 4956 ft 210 kts 194°
2026-05-04 21:36 34.68493 -117.76015 4954 ft 209 kts 193°
2026-05-04 21:36 34.67055 -117.76249 4953 ft 209 kts 193°
2026-05-04 21:37 34.65753 -117.76941 4992 ft 202 kts 229°
2026-05-04 21:37 34.65199 -117.78446 5011 ft 199 kts 259°
2026-05-04 21:37 34.64967 -117.80113 4996 ft 198 kts 257°
2026-05-04 21:37 34.64775 -117.81741 4992 ft 196 kts 260°
2026-05-04 21:38 34.64637 -117.83405 4993 ft 198 kts 263°
2026-05-04 21:38 34.64533 -117.85037 4995 ft 188 kts 262°
2026-05-04 21:38 34.64445 -117.86547 4966 ft 168 kts 262°
2026-05-04 21:38 34.64368 -117.87882 5000 ft 160 kts 261°
2026-05-04 21:39 34.64281 -117.89331 5020 ft 175 kts 263°
2026-05-04 21:39 34.64201 -117.90765 5034 ft 171 kts 262°
2026-05-04 21:39 34.64117 -117.92206 5028 ft 170 kts 262°
2026-05-04 21:39 34.64037 -117.93612 5020 ft 169 kts 262°
2026-05-04 21:40 34.63956 -117.95046 5030 ft 171 kts 263°
2026-05-04 21:40 34.63879 -117.96446 5029 ft 162 kts 262°
2026-05-04 21:40 34.63801 -117.97828 5032 ft 162 kts 261°
2026-05-04 21:40 34.63731 -117.99081 5082 ft 130 kts 262°
2026-05-04 21:41 34.63694 -118.00095 4807 ft 109 kts 261°
2026-05-04 21:41 34.63643 -118.00975 4482 ft 108 kts 260°
2026-05-04 21:41 34.63586 -118.01951 4200 ft 121 kts 261°
2026-05-04 21:41 34.63534 -118.02927 3929 ft 111 kts 261°
2026-05-04 21:42 34.63483 -118.03860 3629 ft 112 kts 262°
2026-05-04 21:42 34.63429 -118.04829 3272 ft 117 kts 262°
2026-05-04 21:42 34.63376 -118.05821 2964 ft 119 kts 261°
2026-05-04 21:42 34.63320 -118.06793 2688 ft 113 kts 256°
2026-05-04 21:43 34.63272 -118.07635 2559 ft 104 kts 259°
2026-05-04 21:43 34.63224 -118.08367 2532 ft 68 kts 259°
2026-05-04 21:43 34.63192 -118.08707 2524 ft 29 kts 268°
2026-05-04 21:43 34.63191 -118.08809 2517 ft 5 kts 271°